Weather Roundup
Issued by NWS Springfield, MO

Home | Current Version | Previous Version | Text Only | Print | Product List | Glossary On
Versions: 1 2 3 4 5 6 7 8 9 10 11 12 13 14 15 16 17 18 19 20 21 22 23 24 25 26 27 28 29 30 31 32 33 34 35 36 37 38 39 40 41 42 43 44 45 46 47 48 49 50
509
NZUS99 KSGF 240407
HRRSGF

HOURLY WEATHER
NATIONAL WEATHER SERVICE SPRINGFIELD MO
1000 PM CST MON JAN 23 2017

......SGF CWA......

CITY           SKY/WX    TMP DP  RH WIND       PRES   REMARKS
SPRINGFIELD    CLEAR     35  30  82 SE5       29.81F WCI  31
JOPLIN         CLEAR     38  33  82 E7        29.81F WCI  33
WEST PLAINS    CLEAR     33  29  85 CALM      29.85S
ROLLA          CLEAR     30  29  96 CALM      29.85R
OSAGE BEACH    CLEAR     29  27  92 E3        29.87S
BRANSON        CLEAR     39  32  75 CALM      29.84S

......SURROUNDING SGF CWA......

CITY           SKY/WX    TMP DP  RH WIND       PRES   REMARKS
CHANUTE        CLEAR     40  33  76 E9        29.78F WCI  34
PARSONS        CLEAR     42  34  73 E5        29.78F
COFFEYVILLE    CLEAR     40  32  73 E6        29.77F
EMPORIA        CLEAR     38  33  82 SE10      29.75F WCI  31
GROVE OK       CLEAR     37  34  87 CALM      29.81F
ROGERS AR      CLEAR     40  35  83 SE7       29.82F
SILOAM SPRINGS   N/A    N/A N/A N/A MISG        N/A
HARRISON AR    CLEAR     37  32  82 SE3       29.84S
NEAR YELLVILLE CLEAR     34  28  80 CALM      29.83S

......KANSAS AND MISSOURI......

CITY           SKY/WX    TMP DP  RH WIND       PRES   REMARKS
KANSAS CTY INT CLEAR     34  29  82 SE9       29.83S WCI  27
DOWNTOWN KC    CLEAR     34  30  85 CALM      29.84S
COLUMBIA       CLOUDY    35  31  85 W3        29.88R
SEDALIA        CLEAR     31  29  92 E6        29.86F WCI  25
ST JOSEPH      CLEAR     31  30  96 E8        29.85S WCI  23
ST LOUIS       CLOUDY    41  32  70 NW7       29.88R
SPIRIT OF STL  CLOUDY    41  34  76 NW3       29.87R
KIRKSVILLE     CLOUDY    32  29  88 CALM      29.88S
WICHITA        CLEAR     44  33  65 SE15      29.68F
TOPEKA         CLEAR     33  30  88 E7        29.81S FOG     WCI  27
OLATHE         CLEAR     33  31  92 E6        29.82F WCI  28

......TENNESSEE......

CITY           SKY/WX    TMP DP  RH WIND       PRES   REMARKS
MEMPHIS        CLEAR     43  38  82 CALM      29.86S
NASHVILLE      CLOUDY    43  35  73 NW12      29.84R

......ARKANSAS.......

CITY           SKY/WX    TMP DP  RH WIND       PRES   REMARKS
FAYETTEVILLE   CLEAR     33  32  96 CALM      29.82F
FT SMITH       CLEAR     42  36  79 NE5       29.82F
LITTLE ROCK    CLEAR     42  38  85 CALM      29.87S

......OKLAHOMA.......

CITY           SKY/WX    TMP DP  RH WIND       PRES   REMARKS
TULSA          CLEAR     46  33  60 SE9       29.76F
PONCA CITY     CLEAR     45  31  58 SE14      29.70F
MCALESTER      CLEAR     50  29  44 SE5       29.79R
OKLAHOMA CITY  CLEAR     48  31  51 S13       29.69F

......IOWA............

CITY           SKY/WX    TMP DP  RH WIND       PRES   REMARKS
DES MOINES     CLOUDY    33  28  81 S3        29.88R
QUAD CITIES    CLOUDY    36  31  82 W6        29.86R WCI  31

......ILLINOIS........

CITY           SKY/WX    TMP DP  RH WIND       PRES   REMARKS
QUINCY         CLOUDY    35  31  85 CALM      29.87S
CHICAGO        CLOUDY    38  35  89 N5        29.80S WCI  34




USA.gov is the U.S. government's official web portal to all federal, state and local government web resources and services.